Wind_Speed
48 48 48 48 47 47 48 51 56 61 64 66 67 67 67 67 65 63 62 60 59 56 54 53 52 51 49 46 43 40 37 35 32 31 29 27 26 24 22 21 20 19 20
54 54 54 53 51 50 48 48 50 53 58 64 68 70 72 72 71 70 68 66 65 63 60 58 56 54 52 50 47 44 41 38 34 32 30 29 27 25 23 22 21 20 20
58 58 57 55 54 52 50 49 48 49 51 55 61 67 72 75 76 76 74 71 70 68 66 63 60 58 55 53 51 48 44 40 37 34 32 30 28 26 24 23 22 21 20
59 60 60 58 56 53 51 49 47 46 47 48 50 55 62 68 73 77 78 77 74 72 70 67 64 63 59 56 54 50 47 43 40 36 33 31 29 28 25 24 23 21 21
61 61 61 60 57 54 51 49 46 45 45 44 44 45 48 54 60 67 75 78 77 75 74 71 68 65 62 59 56 54 50 46 42 38 35 32 30 28 26 24 23 21 21
61 62 61 60 58 54 50 47 45 45 45 45 44 42 42 43 46 51 59 68 74 77 76 74 70 67 63 59 57 55 52 48 44 41 37 34 31 29 27 25 23 22 21
62 61 60 58 55 52 49 45 44 44 46 47 46 44 42 40 40 40 43 50 59 67 73 75 74 70 67 64 59 56 53 51 47 43 39 36 33 30 28 25 23 21 20
61 61 59 56 53 50 47 44 42 42 44 46 47 46 44 41 39 38 37 37 41 49 58 66 70 72 69 66 62 58 55 52 48 45 41 38 35 32 29 26 23 21 20
61 60 57 55 51 47 43 40 38 38 39 43 46 46 45 42 40 39 37 36 34 36 42 50 58 64 66 66 63 59 55 51 48 45 43 40 37 34 30 26 23 21 21
59 57 55 51 46 41 36 34 33 33 35 37 41 43 43 42 41 39 38 36 34 33 34 39 46 53 59 62 62 59 57 53 49 46 44 41 38 34 31 27 24 22 22
57 55 52 48 43 37 32 28 27 27 31 35 37 39 40 40 41 40 38 35 34 32 31 32 36 43 50 55 58 58 55 53 50 46 44 42 39 35 31 27 24 23 23
55 52 49 46 40 34 28 23 22 22 26 31 34 36 37 39 39 39 38 36 34 32 30 30 31 35 42 49 54 55 54 53 50 47 44 42 38 34 31 28 26 26 25
52 50 47 44 38 32 26 20 17 18 21 26 30 33 35 37 38 38 38 36 34 31 29 28 28 31 37 45 51 53 53 52 50 47 44 41 37 35 32 30 28 27 26
51 48 46 42 37 31 24 18 13 11 13 19 25 28 31 33 35 36 36 35 34 32 29 27 27 28 34 43 49 52 53 52 49 47 44 41 38 36 33 31 29 27 27
49 47 44 41 37 31 25 19 13 7 6 11 18 23 27 30 32 34 34 34 34 33 30 27 26 26 32 41 48 50 52 51 49 46 44 41 39 36 34 32 31 28 27
47 45 42 40 36 32 27 21 15 9 3 5 12 17 21 24 27 29 32 33 33 32 29 26 25 26 32 41 46 48 49 49 47 45 42 40 38 36 34 32 30 28 26
46 44 41 38 36 32 28 22 17 12 7 3 7 12 17 20 23 25 28 29 30 30 28 26 25 27 34 41 46 49 50 47 45 44 41 40 38 36 34 32 30 28 27
44 43 40 37 35 32 27 23 19 15 10 6 6 9 14 17 19 22 24 26 26 26 26 25 26 28 33 40 46 48 48 46 44 43 41 40 39 36 35 33 31 29 27
43 41 39 36 34 32 28 24 19 15 12 9 7 9 11 14 16 18 21 22 23 23 23 23 25 27 32 40 47 48 47 45 44 42 40 39 38 36 34 32 30 29 28
41 40 39 36 34 32 28 24 20 16 13 10 9 9 10 12 14 16 18 19 20 20 20 21 22 26 31 39 45 47 46 45 43 41 39 37 36 35 33 32 30 29 28
39 38 37 36 33 31 29 26 21 17 14 11 8 8 9 10 12 13 15 16 17 17 17 18 21 26 31 39 42 44 45 44 41 39 37 36 34 33 31 30 30 29 28
37 36 35 34 33 31 28 26 24 19 16 13 11 10 11 11 12 13 13 15 15 16 17 20 23 27 31 37 39 40 41 40 38 36 35 34 33 31 30 29 29 28 27
34 34 33 33 32 30 28 27 25 21 18 16 14 13 13 13 13 13 15 16 18 19 21 23 25 27 31 33 35 35 35 35 34 32 31 31 30 29 29 28 28 27 27
31 31 30 29 30 30 28 26 25 24 21 18 16 15 14 14 14 16 18 19 20 22 24 25 26 29 32 33 32 31 31 31 30 29 28 28 28 28 28 27 27 26 26
27 27 27 26 26 26 27 26 25 24 23 21 20 19 19 18 19 20 22 23 24 26 27 28 28 30 31 30 29 28 27 26 26 26 26 26 25 25 25 25 25 25 25
24 24 24 24 23 22 23 24 23 23 23 23 23 23 23 23 24 24 26 27 28 28 28 29 29 29 29 27 25 24 23 23 23 23 23 23 23 22 22 22 22 23 23
Wind_Direction
312 309 306 301 295 288 280 272 265 260 255 252 249 246 244 242 240 239 238 238 238 239 240 241 241 241 241 240 239 239 241 245 250 256 261 265 270 275 281 283 282 278 267
314 311 309 305 300 294 287 278 270 264 257 252 248 246 244 242 240 238 237 236 236 237 238 239 240 241 241 240 239 239 239 241 245 250 256 261 266 271 276 280 281 278 268
313 311 309 305 300 295 289 282 275 267 261 256 251 247 244 242 240 238 237 235 235 235 235 236 238 239 239 239 239 238 238 239 241 245 251 256 262 267 272 277 278 276 269
313 311 308 305 301 295 289 282 274 267 261 257 253 250 246 243 241 239 238 236 235 234 234 234 235 236 237 238 238 237 237 237 239 242 246 251 257 262 268 272 274 273 266
313 311 308 305 301 295 289 280 271 263 257 253 250 249 248 246 244 242 240 238 236 235 234 233 232 233 233 235 236 236 235 235 236 238 242 247 253 257 263 267 269 269 265
314 312 309 305 302 297 290 280 269 260 253 248 245 245 246 246 245 244 243 241 238 236 235 233 232 231 231 232 233 234 233 233 234 236 239 243 248 252 258 262 266 265 259
317 315 311 307 303 298 290 282 271 259 251 245 242 242 243 243 244 244 243 242 241 239 237 235 233 232 231 231 231 231 232 232 232 233 236 240 244 247 252 257 261 260 255
320 318 315 311 305 300 291 282 272 261 250 243 240 240 240 241 241 240 240 240 240 239 238 237 235 233 232 232 231 230 230 228 229 230 232 235 239 242 247 251 254 255 250
325 322 320 315 310 303 294 282 272 261 251 241 238 237 238 238 239 238 237 237 237 237 236 236 236 235 233 232 229 228 227 225 225 226 229 231 234 238 242 245 247 247 244
329 328 326 323 317 311 301 286 272 260 249 240 236 235 234 235 235 235 235 235 235 235 234 235 234 233 232 229 227 225 225 224 223 223 225 227 230 233 236 238 240 239 240
335 334 333 331 325 317 307 292 276 260 246 238 235 233 232 232 232 232 232 232 230 230 232 232 232 230 228 226 224 223 222 221 220 220 221 223 226 228 230 232 232 232 236
341 340 339 337 333 326 317 300 282 265 246 235 232 231 229 228 228 228 227 227 225 227 229 230 229 227 224 221 219 218 217 217 216 217 218 219 221 223 224 225 226 227 230
347 346 346 345 343 337 330 317 294 272 250 235 230 229 228 225 224 224 223 222 221 222 224 227 226 224 218 213 210 211 211 212 213 214 214 215 217 217 218 220 222 224 227
352 352 353 354 353 351 346 337 320 288 256 236 226 223 221 220 219 219 220 219 218 219 221 224 224 222 215 206 202 203 205 206 208 210 211 212 213 212 215 218 219 221 225
355 356 357 359 1 1 0 357 349 323 269 232 218 215 214 214 214 214 214 214 214 216 219 220 221 218 211 201 196 197 198 201 204 206 207 208 209 210 212 215 217 219 223
359 360 1 4 6 8 9 11 14 11 347 212 204 204 204 205 206 208 208 210 211 213 215 218 220 214 204 195 191 192 193 197 201 203 204 206 207 208 210 213 216 219 222
1 3 5 8 10 13 16 19 22 28 41 113 175 187 191 194 197 200 202 205 207 209 212 217 219 211 198 192 188 187 188 192 197 199 202 204 205 206 208 212 215 218 221
4 6 7 9 12 15 19 23 27 35 47 77 131 163 177 184 190 195 198 200 203 206 210 215 215 208 198 190 184 183 184 188 192 195 199 201 203 205 207 210 214 217 218
6 9 10 12 14 18 21 25 30 38 52 73 105 137 158 170 179 185 190 195 199 203 207 210 211 203 196 187 181 180 181 184 188 193 197 199 201 204 207 209 212 214 215
8 11 14 16 18 22 24 27 33 41 54 72 96 122 143 157 169 179 186 191 196 199 202 205 203 195 189 183 181 180 181 184 188 192 196 199 201 203 206 208 211 212 214
10 13 15 19 21 24 28 31 36 45 54 68 94 122 137 150 159 168 176 181 185 188 190 190 189 186 183 179 178 179 181 183 187 191 195 199 201 203 206 209 211 212 214
12 15 18 21 25 27 31 34 39 46 55 67 86 109 127 139 149 156 163 168 169 171 172 172 174 176 176 175 175 177 180 184 188 191 195 198 200 203 207 210 212 214 215
13 17 21 25 28 31 35 39 43 49 59 70 81 94 111 124 133 141 148 152 153 152 152 154 159 165 169 170 172 175 180 184 187 191 195 198 202 205 208 211 212 213 216
12 17 22 27 31 35 39 43 48 53 59 68 77 90 103 113 122 129 135 139 142 143 144 147 153 158 163 166 170 175 179 183 187 192 196 200 203 206 208 210 212 214 217
11 16 22 26 31 36 41 45 50 57 64 71 79 87 96 106 112 119 126 131 136 136 138 142 149 155 160 164 169 174 179 185 190 194 198 200 203 205 208 210 213 216 219
9 15 21 26 31 36 42 47 52 59 67 73 80 86 94 102 109 115 120 124 128 132 136 141 148 155 160 164 168 173 179 186 191 194 197 200 203 205 208 212 215 218 222
Height
5698 5693 5688 5684 5679 5676 5673 5670 5668 5668 5670 5673 5676 5680 5684 5688 5694 5699 5704 5709 5714 5719 5724 5729 5734 5739 5744 5749 5754 5759 5763 5767 5769 5771 5773 5774 5774 5774 5774 5773 5772 5771 5772
5680 5674 5669 5663 5658 5654 5651 5648 5646 5645 5645 5647 5650 5655 5660 5665 5671 5677 5684 5690 5696 5702 5708 5714 5719 5725 5730 5736 5742 5747 5752 5757 5760 5763 5765 5767 5768 5768 5768 5767 5767 5766 5766
5663 5656 5650 5644 5639 5634 5629 5627 5625 5624 5623 5624 5626 5630 5634 5640 5647 5654 5661 5669 5676 5683 5691 5697 5704 5710 5716 5722 5729 5735 5741 5746 5751 5754 5757 5759 5761 5762 5762 5761 5761 5761 5761
5647 5639 5631 5624 5618 5614 5609 5606 5604 5603 5604 5604 5605 5607 5611 5616 5623 5630 5638 5646 5655 5663 5672 5680 5687 5694 5701 5707 5714 5721 5728 5735 5740 5745 5748 5751 5753 5755 5755 5755 5755 5755 5755
5631 5621 5612 5604 5597 5593 5589 5586 5585 5584 5585 5586 5588 5590 5592 5597 5602 5608 5616 5624 5633 5643 5652 5661 5669 5677 5684 5691 5699 5707 5715 5723 5729 5735 5739 5743 5746 5748 5749 5749 5749 5749 5749
5615 5604 5594 5584 5577 5571 5567 5565 5564 5565 5567 5569 5571 5574 5577 5581 5585 5590 5596 5604 5613 5622 5632 5641 5650 5660 5667 5676 5684 5693 5702 5710 5718 5724 5730 5734 5738 5740 5742 5742 5743 5743 5744
5599 5587 5576 5565 5557 5550 5546 5544 5544 5545 5548 5551 5555 5559 5563 5567 5571 5576 5581 5587 5594 5603 5612 5622 5632 5641 5651 5660 5669 5678 5688 5697 5706 5714 5720 5725 5729 5732 5734 5736 5737 5738 5738
5584 5571 5559 5548 5539 5531 5525 5523 5523 5525 5528 5533 5538 5544 5549 5554 5559 5564 5569 5574 5580 5586 5594 5603 5614 5624 5633 5643 5654 5665 5675 5685 5694 5703 5710 5715 5720 5724 5727 5729 5730 5732 5733
5570 5556 5543 5530 5520 5512 5507 5504 5504 5506 5510 5515 5522 5528 5535 5541 5546 5552 5557 5563 5569 5574 5580 5588 5597 5607 5618 5630 5641 5652 5663 5673 5682 5691 5698 5705 5710 5715 5719 5722 5724 5726 5728
5557 5543 5529 5515 5504 5496 5491 5488 5488 5490 5494 5499 5506 5513 5521 5528 5534 5540 5546 5553 5559 5564 5570 5576 5584 5592 5602 5614 5627 5639 5651 5662 5671 5680 5688 5695 5701 5706 5711 5715 5718 5720 5722
5547 5532 5518 5505 5493 5485 5479 5476 5475 5477 5481 5486 5493 5500 5508 5515 5522 5529 5535 5542 5549 5555 5560 5565 5571 5578 5588 5600 5613 5627 5639 5650 5660 5670 5678 5685 5692 5698 5703 5708 5711 5714 5717
5540 5525 5511 5498 5486 5477 5471 5467 5466 5467 5470 5475 5482 5489 5496 5504 5511 5518 5526 5533 5540 5546 5552 5557 5561 5567 5576 5587 5600 5614 5627 5639 5650 5660 5669 5677 5684 5691 5696 5700 5704 5708 5711
5536 5521 5507 5494 5482 5472 5466 5461 5459 5460 5462 5466 5473 5480 5487 5494 5502 5509 5517 5525 5532 5539 5544 5549 5554 5559 5566 5576 5589 5602 5615 5628 5641 5651 5661 5669 5676 5683 5688 5693 5697 5701 5704
5533 5519 5505 5493 5481 5471 5464 5459 5456 5455 5456 5460 5465 5472 5479 5486 5494 5501 5509 5517 5525 5532 5538 5543 5548 5552 5559 5567 5579 5592 5605 5619 5632 5643 5652 5660 5668 5674 5681 5686 5691 5695 5699
5532 5519 5506 5494 5483 5474 5466 5460 5456 5455 5455 5457 5461 5467 5473 5480 5488 5495 5503 5511 5518 5525 5532 5537 5542 5547 5552 5560 5571 5584 5597 5611 5623 5634 5644 5652 5660 5668 5674 5680 5684 5689 5693
5533 5521 5509 5497 5487 5478 5470 5464 5460 5457 5456 5457 5460 5465 5471 5477 5483 5491 5498 5506 5513 5520 5527 5532 5536 5541 5547 5555 5566 5578 5590 5604 5616 5627 5637 5646 5654 5661 5667 5673 5678 5682 5686
5535 5523 5512 5501 5491 5483 5475 5469 5465 5462 5460 5460 5462 5466 5471 5476 5482 5488 5495 5502 5509 5516 5522 5527 5531 5536 5542 5551 5561 5573 5586 5599 5610 5621 5631 5640 5648 5655 5661 5667 5672 5676 5680
5538 5526 5516 5506 5497 5488 5481 5475 5471 5468 5466 5465 5466 5469 5472 5477 5482 5488 5494 5500 5507 5513 5518 5523 5528 5532 5538 5546 5558 5569 5581 5594 5605 5615 5625 5634 5642 5649 5656 5661 5667 5671 5675
5542 5531 5520 5511 5502 5494 5487 5481 5477 5474 5472 5471 5472 5473 5476 5480 5484 5488 5494 5499 5505 5511 5516 5521 5525 5530 5536 5545 5556 5567 5579 5590 5600 5611 5621 5629 5637 5644 5650 5656 5661 5666 5670
5546 5536 5526 5517 5508 5500 5493 5488 5483 5480 5478 5477 5477 5478 5480 5483 5486 5490 5495 5499 5504 5509 5514 5519 5523 5529 5535 5545 5555 5566 5577 5588 5599 5609 5617 5626 5633 5640 5646 5651 5656 5661 5665
5551 5541 5532 5523 5515 5507 5500 5494 5489 5486 5484 5482 5482 5483 5485 5487 5490 5493 5496 5500 5504 5508 5514 5519 5524 5530 5537 5546 5556 5567 5578 5588 5597 5607 5615 5623 5630 5636 5642 5647 5651 5656 5660
5556 5547 5538 5530 5522 5515 5508 5502 5497 5493 5490 5488 5487 5488 5489 5491 5493 5496 5499 5502 5506 5510 5515 5520 5526 5533 5541 5550 5560 5570 5579 5589 5598 5606 5613 5620 5627 5632 5638 5643 5647 5652 5656
5561 5553 5545 5538 5530 5523 5517 5511 5505 5501 5497 5496 5494 5494 5494 5496 5497 5500 5502 5505 5509 5513 5518 5524 5531 5538 5546 5555 5564 5573 5582 5590 5598 5605 5612 5618 5624 5629 5634 5639 5643 5648 5652
5566 5559 5552 5545 5539 5532 5526 5520 5515 5510 5507 5504 5502 5501 5501 5502 5503 5505 5507 5511 5515 5519 5524 5531 5538 5545 5553 5561 5569 5577 5584 5592 5598 5605 5611 5616 5621 5626 5631 5635 5640 5644 5647
5570 5564 5558 5552 5546 5541 5535 5530 5525 5520 5517 5514 5511 5510 5509 5509 5510 5512 5514 5518 5522 5526 5532 5538 5545 5552 5559 5567 5574 5581 5587 5593 5599 5605 5610 5615 5619 5624 5628 5633 5637 5641 5644
5574 5568 5563 5558 5553 5548 5543 5539 5535 5531 5527 5525 5522 5521 5520 5520 5520 5522 5524 5528 5531 5536 5541 5547 5552 5559 5565 5572 5578 5583 5589 5594 5599 5604 5609 5613 5618 5622 5626 5630 5634 5637 5640